Satellite: LO-19
Catalog number: 20442
Epoch time:      05349.61840659
Element set:     560
Inclination:      098.2057 deg
RA of node:       014.0891 deg
Eccentricity:    0.0012768
Arg of perigee:   025.1593 deg
Mean anomaly:     335.0221 deg
Mean motion:   14.31948201 rev/day
Decay rate:        2.8e-07 rev/day^2
Epoch rev:           83018
Checksum:              286

Satellite: UO-22
Catalog number: 21575
Epoch time:      05348.92554225
Element set:    0579
Inclination:      098.2691 deg
RA of node:       307.6938 deg
Eccentricity:    0.0006433
Arg of perigee:   265.3514 deg
Mean anomaly:     094.6963 deg
Mean motion:   14.39524660 rev/day
Decay rate:        8.8e-07 rev/day^2
Epoch rev:           75650
Checksum:              339

Satellite: KO-23
Catalog number: 22077
Epoch time:      05349.43628490
Element set:     658
Inclination:      066.0836 deg
RA of node:       126.8707 deg
Eccentricity:    0.0009645
Arg of perigee:   211.4571 deg
Mean anomaly:     148.5873 deg
Mean motion:   12.86434647 rev/day
Decay rate:       -3.7e-07 rev/day^2
Epoch rev:           62690
Checksum:              330

Satellite: AO-27
Catalog number: 22825
Epoch time:      05348.54753403
Element set:    0288
Inclination:      098.2650 deg
RA of node:       334.6376 deg
Eccentricity:    0.0009434
Arg of perigee:   088.3795 deg
Mean anomaly:     271.8475 deg
Mean motion:   14.29156053 rev/day
Decay rate:       1.04e-06 rev/day^2
Epoch rev:           63698
Checksum:              336

Satellite: IO-26
Catalog number: 22826
Epoch time:      05348.96871430
Element set:    0995
Inclination:      098.2606 deg
RA of node:       336.2928 deg
Eccentricity:    0.0010042
Arg of perigee:   084.3179 deg
Mean anomaly:     275.9141 deg
Mean motion:   14.29398043 rev/day
Decay rate:        2.4e-07 rev/day^2
Epoch rev:           63711
Checksum:              319

Satellite: KO-25
Catalog number: 22828
Epoch time:      05349.55653074
Element set:     216
Inclination:      098.2547 deg
RA of node:       337.0196 deg
Eccentricity:    0.0011018
Arg of perigee:   059.3576 deg
Mean anomaly:     300.8696 deg
Mean motion:   14.29708921 rev/day
Decay rate:        2.8e-07 rev/day^2
Epoch rev:           60543
Checksum:              318

Satellite: PO-28
Catalog number: 22829
Epoch time:      05349.47108716
Element set:     254
Inclination:      098.2501 deg
RA of node:       337.9693 deg
Eccentricity:    0.0010657
Arg of perigee:   062.0962 deg
Mean anomaly:     298.1290 deg
Mean motion:   14.30083531 rev/day
Decay rate:       1.13e-06 rev/day^2
Epoch rev:           63738
Checksum:              309

Satellite: TO-31
Catalog number: 25396
Epoch time:      05349.24144642
Element set:     413
Inclination:      098.5081 deg
RA of node:       050.8539 deg
Eccentricity:    0.0003163
Arg of perigee:   028.5564 deg
Mean anomaly:     331.5795 deg
Mean motion:   14.23690592 rev/day
Decay rate:      -1.08e-06 rev/day^2
Epoch rev:           38617
Checksum:              308

Satellite: GO-32
Catalog number: 25397
Epoch time:      05348.27652956
Element set:    0903
Inclination:      098.4975 deg
RA of node:       047.0703 deg
Eccentricity:    0.0001896
Arg of perigee:   057.9846 deg
Mean anomaly:     302.1517 deg
Mean motion:   14.23094957 rev/day
Decay rate:       1.26e-06 rev/day^2
Epoch rev:           38594
Checksum:              342

Satellite: UO-36
Catalog number: 25693
Epoch time:      05349.74388563
Element set:     853
Inclination:      064.5576 deg
RA of node:       086.1261 deg
Eccentricity:    0.0004349
Arg of perigee:   211.8172 deg
Mean anomaly:     148.2665 deg
Mean motion:   14.78563163 rev/day
Decay rate:       -3.2e-07 rev/day^2
Epoch rev:           35866
Checksum:              335

Satellite: SO-41
Catalog number: 26545
Epoch time:      05349.72300272
Element set:     248
Inclination:      064.5578 deg
RA of node:       098.9431 deg
Eccentricity:    0.0057187
Arg of perigee:   277.6791 deg
Mean anomaly:     081.7847 deg
Mean motion:   14.80211705 rev/day
Decay rate:       2.32e-06 rev/day^2
Epoch rev:           28179
Checksum:              329

Satellite: MO-46
Catalog number: 26548
Epoch time:      05348.73524247
Element set:    0363
Inclination:      064.5579 deg
RA of node:       082.2102 deg
Eccentricity:    0.0052170
Arg of perigee:   273.1151 deg
Mean anomaly:     086.3980 deg
Mean motion:   14.82875870 rev/day
Decay rate:       4.48e-06 rev/day^2
Epoch rev:           28206
Checksum:              315

Satellite: SO-42
Catalog number: 26549
Epoch time:      05348.83663344
Element set:     320
Inclination:      064.5560 deg
RA of node:       111.2740 deg
Eccentricity:    0.0060551
Arg of perigee:   280.5131 deg
Mean anomaly:     078.9159 deg
Mean motion:   14.79084463 rev/day
Decay rate:       1.97e-06 rev/day^2
Epoch rev:           28147
Checksum:              307

Satellite: NO-44
Catalog number: 26931
Epoch time:      05349.47174986
Element set:     189
Inclination:      067.0508 deg
RA of node:       120.8777 deg
Eccentricity:    0.0006032
Arg of perigee:   276.2169 deg
Mean anomaly:     083.8247 deg
Mean motion:   14.29416327 rev/day
Decay rate:      -1.37e-06 rev/day^2
Epoch rev:           21967
Checksum:              334

